Vorticity
3 2 1 7 4 5 9 24 12 16 11 10 5 13 -6 2 1 73 23 10 6 23 16 16 7 28 2 -2 41 31 8 9 -0 13 1 8 5 10 5 15 7 22 21 -8 9 1 20
-0 1 -1 10 4 8 11 12 15 13 13 9 0 14 -5 -2 -2 44 46 14 15 30 21 11 7 13 9 18 36 33 13 10 6 -8 16 11 4 10 11 10 13 2 16 15 -15 3 19
-2 -6 -2 5 4 4 17 16 20 13 11 8 4 3 -4 -6 2 27 57 18 12 27 9 21 15 26 29 15 31 39 14 6 16 -1 8 4 7 5 12 8 11 5 6 17 16 6 1
2 4 1 5 5 4 7 20 17 18 13 6 4 6 4 -0 8 24 46 29 16 5 0 1 12 16 22 -12 -11 41 14 9 8 1 8 6 9 7 8 11 11 8 4 10 10 2 13
-3 11 -1 0 2 3 7 21 13 23 11 8 4 5 11 16 2 14 34 45 23 22 12 12 21 33 33 -11 32 24 20 2 13 -1 4 13 6 5 7 8 8 9 7 13 10 -0 0
-8 11 5 -2 3 5 8 24 19 22 13 8 5 9 9 29 9 17 11 25 32 26 20 20 40 26 21 -23 0 20 32 0 4 5 17 9 8 5 1 8 7 19 -3 11 5 26 2
-4 11 3 5 4 6 4 6 20 17 14 9 5 7 14 11 10 -1 20 22 34 23 25 26 24 41 16 16 34 24 49 11 -6 -4 8 10 5 9 9 2 13 8 16 12 18 7 21
-7 4 5 7 4 3 5 18 45 16 18 12 6 5 19 -14 12 12 7 34 13 19 8 23 41 -14 26 5 36 -22 -4 8 4 34 2 6 3 2 10 10 10 8 12 2 7 10 5
4 2 6 4 -3 5 2 9 8 25 25 13 10 7 6 5 -3 18 12 -13 35 36 35 40 40 -16 13 35 15 -23 7 25 43 -10 -14 8 23 35 8 7 2 13 6 12 10 10 7
3 6 4 9 -1 -2 -2 3 7 19 13 19 13 3 -1 4 -8 14 20 20 11 11 9 20 12 54 37 10 5 12 5 -21 16 29 15 21 11 7 9 6 8 14 12 8 5 6 14
3 12 -1 8 3 4 3 5 -2 37 12 25 10 1 -7 8 8 8 14 12 -11 15 7 6 -18 8 27 -7 -39 55 37 10 28 33 18 14 9 5 8 8 7 10 12 13 8 6 4
8 11 -1 11 -0 3 3 5 -2 11 45 15 16 11 -1 3 8 13 -11 21 -3 4 30 0 47 12 36 19 12 55 5 -14 17 -2 27 14 7 4 8 6 8 5 5 7 11 11 7
9 12 6 -1 -4 -2 -1 0 2 6 40 12 32 9 3 3 9 -1 -10 6 6 -9 -2 16 12 23 36 25 19 21 -8 0 -14 10 10 2 4 7 6 2 1 3 5 1 6 10 11
8 11 4 3 11 11 -1 -2 -0 4 27 56 20 22 11 -4 3 -5 7 8 11 -6 -4 20 13 39 10 -15 -20 17 47 3 19 3 21 16 9 5 5 7 8 11 6 6 17 21 7
4 9 12 -4 0 7 7 2 2 -0 14 26 32 30 10 5 2 7 2 3 4 7 16 13 19 19 11 7 3 -2 5 2 1 -6 -3 -3 2 3 3 0 7 9 7 6 10 6 10
-3 16 10 -5 6 5 -1 8 2 4 3 24 13 14 26 12 5 9 5 3 6 0 1 9 12 28 7 7 6 21 15 2 1 4 12 7 5 5 8 14 8 3 14 11 -16 4 10
4 20 9 2 3 5 4 7 4 3 -3 24 35 26 28 10 10 9 4 10 -4 -5 5 1 7 5 6 19 15 19 16 11 9 4 -1 -1 11 15 5 15 23 7 22 -2 10 8 -3
-2 -5 17 6 -0 4 4 6 10 -3 -5 2 32 25 27 20 6 10 11 6 11 5 -4 7 7 6 9 8 6 6 16 -8 14 19 14 18 5 -2 8 -1 5 -1 3 11 4 -1 -1
-6 6 24 2 -2 2 3 7 10 2 -3 3 35 32 22 28 7 9 8 8 2 6 10 3 6 9 4 8 10 5 8 5 4 5 28 26 20 21 5 23 31 18 8 9 16 19 20
2 8 21 4 -21 3 6 -4 18 2 2 -6 39 51 13 25 19 3 6 6 12 10 9 13 8 7 11 7 11 10 10 9 8 8 7 3 5 5 10 9 6 1 7 5 5 8 16
4 3 23 15 9 -5 5 4 5 4 6 -1 17 23 25 20 23 10 5 9 11 13 8 8 12 7 8 10 10 13 8 5 7 9 10 13 12 8 6 6 5 6 7 9 5 4 12
10 -3 25 15 -1 -8 -1 13 -0 3 -1 1 22 23 38 26 19 21 4 4 8 13 11 11 9 7 5 6 7 10 12 9 7 8 8 7 7 11 22 14 7 7 9 11 17 4 -3
10 8 21 7 16 -0 -4 5 9 15 7 -5 1 23 20 31 21 27 12 5 5 7 9 10 10 10 9 8 8 10 10 10 7 9 10 9 10 6 5 10 13 17 18 13 9 11 14
4 17 15 7 6 4 -5 10 2 16 10 5 9 19 42 31 26 11 27 7 1 3 7 11 13 16 16 16 15 13 11 12 11 9 9 8 10 8 7 8 7 15 14 5 12 17 15
5 11 16 12 6 4 -8 -16 -1 13 14 13 -6 31 41 31 25 14 15 22 10 0 2 1 6 3 6 9 10 16 17 14 10 11 15 11 8 10 9 12 11 12 10 10 14 13 15
3 2 14 10 7 -0 1 -3 -14 9 3 10 0 16 33 22 17 13 24 18 15 14 1 1 1 1 0 -0 -0 1 8 11 9 10 14 13 13 11 11 11 9 8 10 12 10 17 19
5 10 18 10 8 8 -1 -16 7 3 8 16 4 22 23 29 24 9 14 21 20 12 15 2 3 2 0 1 0 1 2 4 7 9 11 9 6 8 11 13 11 9 11 10 9 5 10
11 16 12 10 10 11 11 2 -10 -2 10 17 6 26 21 24 29 13 5 21 18 20 10 13 3 5 4 3 3 3 10 13 6 7 6 6 8 11 10 7 5 9 12 10 8 7 6
18 17 11 5 10 8 2 11 10 -1 11 17 8 33 30 26 23 24 13 -1 34 20 19 7 15 6 4 7 7 15 17 13 13 11 10 12 11 6 4 7 10 12 9 7 10 10 7
Height
5791 5781 5770 5757 5743 5729 5715 5703 5690 5678 5665 5654 5641 5627 5612 5594 5578 5559 5553 5549 5546 5544 5544 5545 5546 5547 5551 5559 5569 5587 5605 5620 5638 5650 5659 5672 5684 5693 5703 5714 5723 5730 5738 5741 5744 5757 5763
5789 5779 5768 5754 5741 5727 5713 5700 5686 5675 5665 5652 5640 5626 5612 5594 5576 5559 5550 5547 5542 5539 5540 5542 5543 5543 5547 5555 5563 5579 5599 5613 5633 5644 5654 5666 5680 5688 5697 5707 5716 5725 5728 5731 5740 5750 5754
5787 5777 5765 5752 5739 5724 5710 5698 5685 5673 5664 5652 5640 5626 5612 5597 5578 5561 5550 5546 5543 5539 5540 5540 5540 5540 5544 5553 5564 5575 5592 5610 5625 5641 5654 5664 5672 5683 5693 5701 5709 5714 5719 5724 5737 5747 5752
5787 5775 5763 5750 5737 5723 5709 5696 5685 5673 5663 5652 5641 5627 5615 5602 5582 5564 5553 5547 5544 5541 5540 5540 5539 5540 5546 5554 5562 5572 5587 5606 5621 5637 5649 5658 5667 5678 5688 5696 5700 5708 5713 5721 5736 5740 5746
5785 5774 5762 5750 5737 5722 5709 5696 5685 5672 5663 5653 5642 5630 5618 5606 5591 5573 5560 5552 5546 5542 5540 5538 5538 5541 5548 5556 5563 5570 5585 5605 5621 5636 5647 5654 5665 5675 5683 5692 5698 5704 5712 5724 5731 5737 5743
5784 5773 5760 5749 5736 5722 5709 5696 5685 5673 5664 5655 5645 5634 5623 5611 5600 5584 5569 5558 5550 5545 5541 5539 5538 5544 5552 5559 5567 5573 5587 5607 5624 5636 5644 5651 5661 5671 5681 5690 5698 5710 5715 5720 5729 5734 5738
5782 5771 5760 5748 5735 5721 5709 5696 5686 5675 5665 5659 5649 5640 5628 5617 5608 5595 5583 5570 5562 5555 5547 5545 5545 5548 5558 5564 5571 5579 5595 5611 5626 5635 5641 5651 5662 5673 5681 5689 5696 5704 5711 5716 5723 5726 5730
5779 5770 5759 5748 5735 5722 5709 5695 5686 5676 5668 5661 5652 5645 5636 5626 5616 5605 5598 5585 5574 5566 5559 5557 5557 5561 5565 5569 5577 5583 5602 5617 5627 5633 5640 5652 5661 5670 5678 5686 5692 5697 5705 5712 5716 5719 5723
5777 5768 5758 5748 5736 5723 5710 5697 5688 5677 5669 5664 5656 5649 5641 5633 5624 5615 5608 5602 5589 5579 5572 5568 5568 5570 5573 5577 5586 5595 5602 5617 5627 5637 5644 5653 5661 5667 5676 5683 5689 5695 5701 5706 5712 5716 5720
5774 5766 5757 5747 5736 5724 5711 5698 5687 5680 5670 5664 5659 5652 5645 5638 5632 5624 5617 5611 5603 5597 5589 5586 5583 5583 5584 5586 5592 5602 5614 5623 5629 5636 5644 5652 5660 5666 5673 5680 5686 5692 5697 5703 5707 5711 5717
5771 5763 5755 5745 5736 5724 5711 5700 5688 5680 5671 5664 5659 5654 5649 5641 5638 5632 5623 5619 5614 5609 5602 5599 5598 5600 5603 5601 5600 5605 5611 5624 5633 5638 5648 5653 5659 5666 5673 5679 5684 5689 5695 5700 5704 5706 5710
5768 5760 5753 5744 5735 5724 5711 5699 5688 5678 5672 5664 5660 5655 5650 5646 5641 5637 5631 5626 5622 5618 5610 5607 5604 5605 5605 5607 5609 5614 5622 5631 5634 5641 5647 5654 5660 5667 5672 5677 5682 5687 5692 5696 5698 5700 5702
5765 5756 5750 5743 5734 5723 5712 5700 5688 5678 5672 5665 5660 5654 5650 5647 5645 5640 5636 5633 5632 5624 5622 5618 5614 5612 5610 5613 5618 5624 5627 5630 5638 5645 5650 5656 5661 5667 5670 5676 5680 5684 5688 5690 5692 5693 5697
5762 5753 5747 5741 5732 5723 5711 5700 5688 5678 5670 5664 5658 5654 5650 5647 5645 5642 5639 5637 5634 5630 5627 5624 5622 5621 5623 5624 5625 5631 5632 5638 5642 5647 5652 5657 5661 5664 5669 5674 5679 5680 5682 5685 5686 5688 5692
5757 5750 5743 5738 5730 5721 5709 5698 5687 5676 5667 5661 5655 5652 5648 5646 5644 5642 5641 5639 5637 5635 5632 5630 5628 5628 5629 5631 5633 5634 5639 5642 5644 5647 5653 5656 5660 5665 5669 5671 5673 5675 5677 5682 5682 5682 5685
5753 5747 5740 5734 5727 5718 5709 5698 5686 5676 5664 5658 5654 5649 5645 5643 5643 5641 5641 5640 5639 5638 5637 5635 5634 5633 5633 5633 5634 5634 5637 5641 5644 5648 5651 5655 5657 5660 5662 5664 5668 5671 5675 5676 5676 5677 5678
5749 5744 5736 5731 5725 5716 5705 5695 5685 5672 5662 5653 5650 5644 5641 5640 5639 5639 5637 5637 5638 5639 5639 5638 5637 5636 5637 5635 5635 5636 5639 5642 5644 5646 5649 5652 5656 5659 5661 5663 5666 5668 5667 5672 5672 5671 5672
5743 5739 5732 5726 5721 5714 5704 5694 5682 5670 5660 5650 5646 5640 5636 5636 5636 5634 5635 5634 5634 5636 5637 5639 5638 5638 5638 5638 5639 5640 5641 5644 5646 5647 5649 5650 5654 5656 5659 5660 5661 5662 5664 5664 5664 5667 5667
5737 5733 5727 5722 5717 5711 5702 5692 5679 5669 5656 5646 5641 5637 5632 5630 5630 5630 5631 5631 5630 5632 5634 5635 5636 5638 5638 5639 5639 5640 5641 5643 5644 5646 5647 5649 5651 5653 5654 5656 5657 5658 5660 5661 5661 5661 5660
5730 5726 5722 5717 5713 5708 5699 5688 5678 5666 5653 5643 5636 5632 5629 5625 5625 5625 5625 5627 5628 5627 5629 5631 5633 5634 5635 5636 5637 5638 5638 5639 5639 5640 5642 5645 5647 5649 5650 5650 5651 5653 5655 5656 5656 5656 5658
5723 5720 5716 5711 5709 5704 5696 5685 5675 5662 5650 5641 5630 5626 5623 5621 5618 5619 5621 5623 5624 5624 5624 5626 5628 5630 5632 5632 5633 5634 5635 5637 5637 5638 5639 5640 5642 5643 5645 5646 5647 5648 5650 5650 5652 5653 5651
5715 5714 5710 5706 5702 5699 5692 5682 5671 5659 5646 5637 5627 5621 5617 5614 5614 5614 5614 5617 5619 5620 5620 5622 5624 5626 5627 5629 5630 5630 5632 5633 5635 5636 5636 5637 5638 5638 5640 5641 5642 5643 5644 5646 5646 5647 5648
5707 5707 5703 5700 5696 5693 5688 5679 5669 5656 5643 5631 5622 5615 5609 5610 5608 5607 5610 5612 5614 5616 5617 5617 5619 5621 5623 5624 5626 5627 5628 5629 5630 5632 5632 5633 5634 5635 5636 5636 5637 5639 5640 5640 5641 5642 5644
5700 5699 5695 5692 5689 5686 5683 5675 5666 5652 5640 5627 5616 5608 5603 5603 5600 5599 5600 5603 5606 5609 5612 5613 5614 5616 5619 5619 5621 5623 5624 5625 5626 5628 5629 5630 5631 5632 5632 5633 5633 5635 5635 5635 5637 5637 5637
5691 5690 5688 5685 5683 5680 5676 5670 5661 5649 5636 5624 5610 5603 5596 5594 5593 5593 5594 5595 5598 5602 5606 5608 5611 5613 5614 5616 5617 5619 5620 5621 5622 5623 5624 5626 5627 5628 5628 5629 5631 5630 5630 5631 5632 5633 5633
5682 5682 5681 5677 5675 5672 5668 5663 5657 5645 5633 5619 5605 5596 5590 5587 5589 5587 5587 5587 5589 5593 5598 5602 5605 5608 5611 5613 5615 5616 5617 5618 5619 5620 5620 5622 5622 5624 5624 5625 5626 5627 5627 5628 5628 5629 5630
5674 5674 5672 5669 5667 5665 5660 5657 5651 5641 5628 5614 5600 5590 5584 5581 5581 5579 5579 5579 5579 5584 5588 5593 5597 5601 5605 5608 5610 5612 5614 5615 5616 5617 5618 5618 5619 5620 5620 5621 5623 5623 5624 5624 5626 5630 5627
5667 5665 5663 5661 5659 5656 5652 5648 5644 5637 5626 5610 5597 5585 5579 5574 5573 5572 5571 5571 5571 5574 5579 5584 5589 5592 5597 5601 5604 5606 5608 5610 5612 5613 5613 5615 5616 5616 5617 5618 5619 5619 5620 5621 5623 5623 5623
5658 5656 5654 5653 5650 5648 5644 5640 5636 5630 5621 5604 5592 5576 5571 5566 5565 5565 5565 5565 5564 5565 5569 5574 5579 5585 5588 5592 5597 5599 5602 5604 5605 5608 5609 5610 5612 5613 5614 5614 5614 5614 5615 5616 5617 5618 5619